Regional Weather Roundup
Issued by NWS

Home | Current Version | Previous Version | Text Only | Print | Product List | Glossary Off
Versions: 1 2 3 4 5 6 7 8 9 10 11 12 13 14 15 16 17 18 19 20 21 22 23 24 25 26 27 28 29 30 31 32 33 34 35 36 37 38 39 40 41 42 43 44 45 46 47 48 49 50

000
ASUS45 KPSR 142010
RWRAZ

ARIZONA HOURLY REGIONAL WEATHER ROUNDUP
NATIONAL WEATHER SERVICE PHOENIX AZ
100 PM MST SUN FEB 14 2016

NOTE: FAIR INDICATES FEW OR NO CLOUDS BELOW 12,000 FEET WITH NO
SIGNIFICANT WEATHER AND/OR OBSTRUCTIONS TO VISIBILITY.

AZZ001>003-036-142100-
NORTHWEST ARIZONA

CITY           SKY/WX    TMP DP  RH WIND       PRES   REMARKS
BULLHEAD CITY  MOSUNNY   73  18  12 N25G33    30.06F
KINGMAN        MOSUNNY   66  20  17 N9        30.15F
$$

AZZ004>008-015-016-018-142100-
NORTH CENTRAL ARIZONA

CITY           SKY/WX    TMP DP  RH WIND       PRES   REMARKS
GRAND CANYON   SUNNY     57  12  17 W12G22    30.22S
WILLIAMS       SUNNY     59  12  15 NW15G21   30.27R
PRESCOTT       SUNNY     66  10  11 N14       30.14S
FLAGSTAFF      SUNNY     57   9  14 VRB3      30.17F
PAYSON         SUNNY     66  18  15 SW6       30.10F
PAGE           SUNNY     52  25  35 NW3       30.12F
$$

AZZ009>014-017-142100-
NORTHEAST ARIZONA

CITY           SKY/WX    TMP DP  RH WIND       PRES   REMARKS
WINSLOW        SUNNY     61  21  21 VRB3      30.12F
SAINT JOHNS    CLOUDY    55  18  23 NW12      30.13F
WINDOW ROCK    CLOUDY    55   0  10 W9        30.13F
SHOW LOW       PTSUNNY   54  16  22 CALM      30.17F
$$

AZZ023-142100-
GREATER PHOENIX AREA

CITY           SKY/WX    TMP DP  RH WIND       PRES   REMARKS
PHOENIX        MOSUNNY   78  28  16 VRB6      29.95F
BUCKEYE        SUNNY     73  32  21 SE7       30.00F
GLENDALE       MOSUNNY   73  32  21 CALM      29.99F
LUKE AFB       SUNNY     74  29  19 VRB2      29.96F
DEER VALLEY    SUNNY     73  30  20 SW6       29.96F
SCOTTSDALE     SUNNY     73  27  18 SW6       29.98F
MESA-FALCON    SUNNY    N/A N/A N/A VRB6      29.96F
MESA-GATEWAY   MOSUNNY   72  32  23 CALM      29.99F
CHANDLER       MOSUNNY   73  32  21 SW7       29.98F
$$

AZZ027-028-142100-
SOUTHWEST MARICOPA COUNTY AND PINAL COUNTY

CITY           SKY/WX    TMP DP  RH WIND       PRES   REMARKS
CASA GRANDE    SUNNY     72  28  20 CALM      29.99F
GILA BEND      FAIR      74  22  14 NW3       29.97F
$$

AZZ503-504-507>509-142100-
SOUTHEAST ARIZONA

CITY           SKY/WX    TMP DP  RH WIND       PRES   REMARKS
TUCSON         SUNNY     77  23  13 W7        30.04F
DAVIS-MONTHAN  SUNNY     74  24  15 NW8       30.02F
RYAN FIELD     SUNNY     79  28  15 NW7       30.04F
NOGALES        SUNNY     77  13   9 W12       30.05F
SIERRA VISTA   SUNNY     73   8   8 NW10      30.09F
DOUGLAS        SUNNY     75   8   7 N9G18     30.05F
SAFFORD        SUNNY     71  19  14 W10       30.01F
$$

AZZ020-021-025-026-031-142100-
SOUTHWEST ARIZONA

CITY           SKY/WX    TMP DP  RH WIND       PRES   REMARKS
YUMA           SUNNY     85  21   9 N15G22    30.00F
$$

CAZ031-033-041-043-047-048-061-142100-
SOUTHERN CALIFORNIA

CITY           SKY/WX    TMP DP  RH WIND       PRES   REMARKS
DOWNTOWN L.A.  SUNNY     77  48  35 CALM      30.02F HAZE
L.A. AIRPORT   MOSUNNY   61  53  75 W12       30.04F HAZE
SAN DIEGO      MOSUNNY   70  49  47 W7        30.03F
BURBANK        SUNNY     82  30  15 E6        30.03F
ONTARIO        MOSUNNY   85  27  12 N12G18    30.03F
RIVERSIDE      MOSUNNY   83  29  14 S7        30.03F
PALM SPRINGS   SUNNY     88  19   8 VRB3      30.03F
EL CENTRO NAS  SUNNY     87  15   7 N9        30.01F
IMPERIAL       SUNNY     87  24  10 N9        29.98F
BLYTHE         SUNNY     84  17   8 N17G23    30.01F
NEEDLES        MOSUNNY   80  16   9 NE21G26   30.06F
$$

NVZ020-UTZ003-142100-
SOUTHERN NEVADA-UTAH

CITY           SKY/WX    TMP DP  RH WIND       PRES   REMARKS
LAS VEGAS      PTSUNNY   67  17  14 NE3       30.12F
SALT LAKE CITY CLOUDY    37  34  89 SE9       30.24F FOG     WCI  30
$$

NMZ009-TXZ055-142100-
NEW MEXICO-WEST TEXAS

CITY           SKY/WX    TMP DP  RH WIND       PRES   REMARKS
ALBUQUERQUE    CLOUDY    59  15  18 VRB3      30.04F
EL PASO        MOSUNNY   71  10   9 VRB3      30.00F
$$


........................KEY........................
SKY/WX - SKY CONDITION/WEATHER
TMP    - TEMPERATURE IN FAHRENHEIT
DP     - DEW POINT IN FAHRENHEIT
RH     - RELATIVE HUMIDITY IN PERCENT
WIND   - DIRECTION AND SPEED IN MILES PER HOUR (MPH)
VRB    - VARIABLE WIND DIRECTION
PRES   - MEAN SEA LEVEL PRESSURE IN INCHES OF MERCURY
         F - FALLING PRESSURE   R - RISING PRESSURE
         S - STEADY PRESSURE
VSB    - VISIBILITY IN MILES
HX     - HEAT INDEX IN FAHRENHEIT
WCI    - WIND CHILL INDEX IN FAHRENHEIT
TC     - TEMPERATURE IN CELSIUS WHICH IS ALSO KNOWN AS
         TEMPERATURE IN CENTIGRADE
AFB    - AIR FORCE BASE
         LUKE AFB IS LUKE AIR FORCE BASE
         DAVIS-MONTHAN IS DAVIS-MONTHAN AIR FORCE BASE
NAS    - NAVAL AIR STATION
         EL CENTRO NAS IS EL CENTRO NAVAL AIR STATION
N/A    - NOT AVAILABLE




USA.gov is the U.S. government's official web portal to all federal, state and local government web resources and services.